TimeEST,TemperatureF,Dew PointF,Humidity,Sea Level PressureIn,VisibilityMPH,Wind Direction,Wind SpeedMPH,Gust SpeedMPH,PrecipitationIn,Events,Conditions,WindDirDegrees,DateUTC
12:14 AM,21.2,19.4,93,29.49,2.0,NW,21.9,32.2,N/A,Snow,Light Snow,320,2014-01-06 05:14:00
12:34 AM,21.2,17.6,86,29.51,2.5,NW,24.2,33.4,N/A,Snow,Light Snow,320,2014-01-06 05:34:00
12:54 AM,21.2,17.6,86,29.54,2.5,NW,19.6,33.4,N/A,Snow,Light Snow,320,2014-01-06 05:54:00
1:14 AM,21.2,17.6,86,29.53,2.5,NW,21.9,29.9,N/A,Snow,Light Snow,320,2014-01-06 06:14:00
1:34 AM,21.2,17.6,86,29.55,2.5,NW,19.6,27.6,N/A,Snow,Light Snow,310,2014-01-06 06:34:00
1:54 AM,19.4,15.8,86,29.57,4.0,NW,17.3,29.9,N/A,Snow,Light Snow,310,2014-01-06 06:54:00
2:14 AM,19.4,15.8,86,29.59,3.0,NW,20.7,31.1,N/A,Snow,Light Snow,310,2014-01-06 07:14:00
2:34 AM,17.6,12.2,79,29.61,5.0,NW,21.9,31.1,N/A,,Haze,310,2014-01-06 07:34:00
2:54 AM,17.6,12.2,79,29.63,7.0,WNW,20.7,27.6,N/A,,Overcast,300,2014-01-06 07:54:00
3:14 AM,17.6,10.4,73,29.65,10.0,WNW,18.4,26.5,N/A,,Mostly Cloudy,300,2014-01-06 08:14:00
3:35 AM,17.6,10.4,73,29.67,10.0,WNW,17.3,26.5,N/A,,Clear,300,2014-01-06 08:35:00
3:54 AM,15.8,10.4,79,29.68,10.0,WNW,16.1,27.6,N/A,,Clear,290,2014-01-06 08:54:00
4:14 AM,15.8,10.4,79,29.69,10.0,WNW,12.7,21.9,N/A,,Scattered Clouds,300,2014-01-06 09:14:00
4:34 AM,15.8,10.4,79,29.70,10.0,WNW,11.5,20.7,N/A,,Clear,290,2014-01-06 09:34:00
4:54 AM,15.8,8.6,73,29.71,10.0,WNW,13.8,21.9,N/A,,Clear,290,2014-01-06 09:54:00
5:14 AM,15.8,8.6,73,29.73,10.0,West,11.5,17.3,N/A,,Scattered Clouds,280,2014-01-06 10:14:00
5:34 AM,15.8,10.4,79,29.73,10.0,West,10.4,16.1,N/A,,Overcast,280,2014-01-06 10:34:00
5:54 AM,15.8,10.4,79,29.74,10.0,West,9.2,17.3,N/A,Snow,Light Snow,270,2014-01-06 10:54:00
6:14 AM,15.8,8.6,73,29.75,10.0,West,13.8,18.4,N/A,Snow,Light Snow,270,2014-01-06 11:14:00
6:34 AM,15.8,8.6,73,29.77,10.0,West,10.4,-,N/A,,Overcast,270,2014-01-06 11:34:00
6:54 AM,15.8,8.6,73,29.78,10.0,West,11.5,-,N/A,,Overcast,260,2014-01-06 11:54:00
7:14 AM,15.8,8.6,73,29.79,10.0,West,8.1,17.3,N/A,,Overcast,260,2014-01-06 12:14:00
7:34 AM,15.8,8.6,73,29.79,10.0,WSW,10.4,-,N/A,,Overcast,250,2014-01-06 12:34:00
7:54 AM,15.8,8.6,73,29.80,7.0,WSW,12.7,17.3,N/A,Snow,Light Snow,240,2014-01-06 12:54:00
8:14 AM,15.8,10.4,79,29.81,10.0,WSW,12.7,19.6,N/A,Snow,Light Snow,250,2014-01-06 13:14:00
8:34 AM,12.2,6.8,79,29.82,3.0,WSW,17.3,23.0,N/A,Snow,Light Snow,250,2014-01-06 13:34:00
8:54 AM,10.4,5.0,79,29.84,2.0,West,26.5,34.5,N/A,,Haze,260,2014-01-06 13:54:00
9:13 AM,10.4,3.2,73,29.85,1.5,West,20.7,29.9,N/A,,Haze,260,2014-01-06 14:13:00
9:34 AM,8.6,3.2,79,29.85,1.0,West,18.4,28.8,N/A,Snow,Light Snow,260,2014-01-06 14:34:00
9:54 AM,8.6,3.2,79,29.86,1.2,West,13.8,25.3,N/A,,Haze,260,2014-01-06 14:54:00
10:14 AM,6.8,1.4,79,29.87,0.8,WSW,17.3,32.2,N/A,Snow,Light Snow,250,2014-01-06 15:14:00
10:34 AM,6.8,-0.4,72,29.88,1.2,WSW,23.0,32.2,N/A,,Haze,250,2014-01-06 15:34:00
10:54 AM,6.8,-0.4,72,29.88,1.8,WSW,20.7,29.9,N/A,,Haze,250,2014-01-06 15:54:00
11:14 AM,6.8,-2.2,67,29.88,1.8,WSW,21.9,27.6,N/A,,Haze,250,2014-01-06 16:14:00
11:34 AM,6.8,-2.2,67,29.88,1.8,WSW,21.9,28.8,N/A,,Haze,250,2014-01-06 16:34:00
11:54 AM,3.2,-5.8,66,29.88,1.2,WSW,26.5,31.1,N/A,,Haze,250,2014-01-06 16:54:00
12:14 PM,1.4,-5.8,72,29.88,1.5,WSW,26.5,32.2,N/A,,Haze,250,2014-01-06 17:14:00
12:34 PM,1.4,-7.6,66,29.88,2.5,WSW,21.9,27.6,N/A,,Haze,250,2014-01-06 17:34:00
12:54 PM,-0.4,-9.4,66,29.88,1.0,WSW,25.3,35.7,N/A,,Haze,240,2014-01-06 17:54:00
1:14 PM,-0.4,-9.4,66,29.88,2.0,WSW,21.9,31.1,N/A,,Haze,250,2014-01-06 18:14:00
1:34 PM,-0.4,-9.4,66,29.88,2.5,WSW,24.2,33.4,N/A,,Haze,250,2014-01-06 18:34:00
1:54 PM,-0.4,-9.4,66,29.89,1.8,WSW,24.2,35.7,N/A,Snow,Light Snow,250,2014-01-06 18:54:00
2:14 PM,-0.4,-9.4,66,29.89,2.5,WSW,24.2,31.1,N/A,,Haze,250,2014-01-06 19:14:00
2:34 PM,-0.4,-9.4,66,29.90,1.8,WSW,18.4,33.4,N/A,,Haze,250,2014-01-06 19:34:00
2:53 PM,-0.4,-11.2,60,29.91,3.0,WSW,21.9,28.8,N/A,,Haze,250,2014-01-06 19:53:00
3:14 PM,-2.2,-11.2,66,29.92,2.0,WSW,23.0,33.4,N/A,,Haze,240,2014-01-06 20:14:00
3:34 PM,-2.2,-11.2,66,29.94,2.5,WSW,23.0,29.9,N/A,,Haze,240,2014-01-06 20:34:00
3:54 PM,-4.0,-13.0,65,29.95,3.0,WSW,20.7,33.4,N/A,,Haze,250,2014-01-06 20:54:00
4:14 PM,-5.8,-14.8,65,29.96,1.5,WSW,25.3,35.7,N/A,Snow,Light Snow,250,2014-01-06 21:14:00
4:34 PM,-5.8,-14.8,65,29.98,2.5,WSW,24.2,31.1,N/A,,Haze,240,2014-01-06 21:34:00
4:54 PM,-5.8,-14.8,65,29.99,2.5,WSW,24.2,35.7,N/A,,Haze,250,2014-01-06 21:54:00
5:14 PM,-7.6,-16.6,65,30.00,4.0,WSW,23.0,31.1,N/A,,Haze,250,2014-01-06 22:14:00
5:34 PM,-7.6,-16.6,65,30.01,4.0,WSW,24.2,32.2,N/A,,Haze,250,2014-01-06 22:34:00
5:54 PM,-7.6,-16.6,65,30.02,4.0,WSW,19.6,36.8,N/A,,Haze,250,2014-01-06 22:54:00
6:14 PM,-9.4,-18.4,65,30.04,5.0,WSW,21.9,29.9,N/A,,Haze,250,2014-01-06 23:14:00
6:34 PM,-9.4,-18.4,65,30.05,7.0,WSW,20.7,32.2,N/A,,Scattered Clouds,240,2014-01-06 23:34:00
6:54 PM,-9.4,-18.4,65,30.06,7.0,WSW,20.7,29.9,N/A,,Clear,250,2014-01-06 23:54:00
7:14 PM,-11.2,-18.4,70,30.08,7.0,WSW,23.0,32.2,N/A,,Clear,250,2014-01-07 00:14:00
7:34 PM,-11.2,-20.2,64,30.08,4.0,West,21.9,31.1,N/A,,Haze,260,2014-01-07 00:34:00
7:54 PM,-11.2,-20.2,64,30.09,5.0,WSW,19.6,29.9,N/A,,Haze,250,2014-01-07 00:54:00
8:14 PM,-11.2,-20.2,64,30.09,4.0,WSW,21.9,31.1,N/A,,Haze,250,2014-01-07 01:14:00
8:34 PM,-13.0,-20.2,70,30.10,7.0,WSW,21.9,28.8,N/A,,Clear,250,2014-01-07 01:34:00
8:54 PM,-13.0,-20.2,70,30.10,7.0,WSW,18.4,27.6,N/A,,Clear,250,2014-01-07 01:54:00
9:14 PM,-13.0,-20.2,70,30.10,7.0,WSW,21.9,28.8,N/A,,Clear,240,2014-01-07 02:14:00
9:34 PM,-13.0,-20.2,70,30.10,10.0,WSW,19.6,27.6,N/A,,Clear,240,2014-01-07 02:34:00
9:54 PM,-13.0,-20.2,70,30.10,7.0,WSW,16.1,29.9,N/A,,Clear,240,2014-01-07 02:54:00
10:14 PM,-13.0,-22.0,64,30.10,10.0,WSW,17.3,27.6,N/A,,Clear,240,2014-01-07 03:14:00
10:34 PM,-13.0,-20.2,70,30.10,10.0,WSW,12.7,24.2,N/A,,Clear,240,2014-01-07 03:34:00
10:54 PM,-13.0,-20.2,70,30.10,7.0,SW,18.4,27.6,N/A,,Clear,230,2014-01-07 03:54:00
11:14 PM,-13.0,-20.2,70,30.11,7.0,SW,17.3,26.5,N/A,,Clear,230,2014-01-07 04:14:00
11:34 PM,-13.0,-20.2,70,30.10,10.0,SW,16.1,25.3,N/A,,Clear,230,2014-01-07 04:34:00
11:54 PM,-13.0,-20.2,70,30.10,7.0,WSW,15.0,27.6,N/A,,Clear,240,2014-01-07 04:54:00